SCP
0 0 0 0 0 0 0 0 0 0 0 0 0 0 0 0 0 0 0 0 0 0 0 0 0 0 0 0 0 0 0 0 0 0 0 0 0 0 0 0 0 0 0
0 0 0 0 0 0 0 0 0 0 0 0 0 0 0 0 0 0 0 0 0 0 0 0 0 0 0 0 0 0 0 0 0 0 0 0 0 0 0 0 0 0 0
0 0 0 0 0 0 0 0 0 0 0 0 0 0 0 0 0 0 0 0 0 0 0 0 0 0 0 0 0 0 0 0 0 0 0 0 0 0 0 0 0 0 0
0 0 0 0 0 0 0 0 0 0 0 0 0 0 0 0 0 0 0 0 0 0 0 0 0 0 0 0 0 0 0 0 0 0 0 0 0 0 0 0 0 0 0
0 0 0 0 0 0 0 0 0 0 0 0 0 0 0 0 0 0 0 0 0 0 0 0 0 0 0 0 0 0 0 0 0 0 0 0 0 0 0 0 0 0 0
0 0 0 0 0 0 0 0 0 0 0 0 0 0 0 0 0 0 0 0 0 0 0 0 0 0 0 0 0 0 0 0 0 0 0 0 0 0 0 0 0 0 0
0 0 0 0 0 0 0 0 0 0 0 0 0 0 0 0 0 0 0 0 0 0 0 0 0 0 0 0 0 0 0 0 0 0 0 0 0 0 0 0 0 0 0
0 0 0 0 0 0 0 0 0 0 0 0 0 0 0 0 0 0 0 0 0 0 0 0 0 0 0 0 0 0 0 0 0 0 0 0 0 0 0 0 0 0 0
0 0 0 0 0 0 0 0 0 0 0 0 0 0 0 0 0 0 0 0 0 0 0 0 0 0 0 0 0 0 0 0 0 0 0 0 0 0 0 0 0 0 0
0 0 0 0 0 0 0 0 0 0 0 0 0 0 0 0 0 0 0 0 0 0 0 0 0 0 0 0 0 0 0 0 0 0 0 0 0 0 0 0 0 0 0
0 0 0 0 0 0 0 0 0 0 0 0 0 0 0 0 0 0 0 0 0 0 0 0 0 0 0 0 0 0 0 1 0 0 0 0 0 0 0 0 0 0 0
0 0 0 0 0 0 0 0 0 0 0 0 0 0 0 0 0 0 0 0 0 0 0 0 0 0 0 0 0 0 0 0 0 0 0 0 0 0 0 0 0 0 0
0 0 0 0 0 0 0 0 0 0 0 0 0 0 0 0 0 0 0 0 0 0 0 0 0 0 0 0 0 0 0 0 0 0 0 0 0 0 0 0 0 0 0
0 0 0 0 0 0 0 0 0 0 0 0 0 0 0 0 0 0 0 0 0 0 0 0 0 0 0 0 0 0 0 0 0 0 0 0 0 0 0 0 0 0 0
0 0 0 0 0 0 0 0 0 0 0 0 0 0 0 0 0 0 0 0 0 0 0 0 0 0 0 0 0 0 0 0 0 0 0 0 0 0 0 0 0 0 0
0 0 0 0 0 0 0 0 0 0 0 0 0 0 0 0 0 0 0 0 0 0 0 0 0 0 0 0 0 0 0 0 0 0 0 0 0 0 0 0 0 0 0
0 0 0 0 0 0 0 0 0 0 0 0 0 0 0 0 0 0 0 0 0 0 0 0 0 0 0 0 0 0 0 0 0 0 0 0 0 0 0 0 0 0 0
0 0 0 0 0 0 0 0 0 0 0 0 0 0 0 0 0 0 0 0 0 0 0 0 0 0 0 0 0 0 0 0 0 0 0 0 0 0 0 0 0 0 0
0 0 0 0 0 0 0 0 0 0 0 0 0 0 0 0 0 0 0 0 0 0 0 0 0 0 0 0 0 0 0 0 0 0 0 0 0 0 0 0 0 0 0
0 0 0 0 0 0 0 0 0 0 0 0 0 0 0 0 0 0 0 0 0 0 0 0 0 0 0 0 0 0 0 0 0 0 0 0 0 0 0 0 0 0 0
0 0 0 0 0 0 0 0 0 0 0 0 0 0 0 0 0 0 0 0 0 0 0 0 0 0 0 0 0 0 0 0 0 0 0 0 0 0 0 0 0 0 0
0 0 0 0 0 0 0 0 0 0 0 0 0 0 0 0 0 0 0 0 0 0 0 0 0 0 0 0 0 0 0 0 0 0 0 0 0 0 0 0 0 0 0
0 0 0 0 0 0 0 0 0 0 0 0 0 0 0 0 0 0 0 0 0 0 0 0 0 0 0 0 0 0 0 0 0 0 0 0 0 0 0 0 0 0 0
0 0 0 0 0 0 0 0 0 0 0 0 0 0 0 0 0 0 0 0 0 0 0 0 0 0 0 0 0 0 0 0 0 0 0 0 0 0 0 0 0 0 0
0 0 0 0 0 0 0 0 0 0 0 0 0 0 0 0 0 0 0 0 0 0 0 0 0 0 0 0 0 0 0 0 0 0 0 0 0 0 0 0 0 0 0
0 0 0 0 0 0 0 0 0 0 0 0 0 0 0 0 0 0 0 0 0 0 0 0 0 0 0 0 0 0 0 0 0 0 0 0 0 0 0 0 0 0 0
Wind_Speed
3 2 1 1 1 1 2 2 1 2 2 2 2 3 3 3 3 2 2 6 7 8 8 8 7 7 7 6 6 6 6 6 6 6 6 6 6 6 7 7 7 7 6
3 3 2 2 1 2 2 2 2 2 2 2 2 2 3 3 3 2 2 3 6 7 7 7 6 6 7 6 6 6 6 6 6 6 6 6 6 7 7 6 6 6 6
3 3 2 2 2 2 2 2 2 2 2 2 2 2 2 2 2 2 2 1 2 5 6 6 6 6 6 6 6 6 5 6 6 6 6 6 7 6 6 6 6 6 6
4 3 3 2 2 2 2 2 2 2 2 2 1 1 1 2 2 2 2 2 1 2 4 6 6 6 6 6 6 6 6 5 5 6 6 6 6 6 6 6 6 6 6
3 3 3 2 2 2 2 2 2 2 2 1 1 1 1 2 2 3 3 3 2 2 2 4 6 6 6 6 6 6 5 5 5 5 6 6 6 6 6 6 6 5 6
3 3 2 2 2 2 2 2 3 2 1 1 1 1 0 1 1 2 3 3 2 3 3 3 2 3 6 6 6 6 6 6 6 5 6 6 6 6 6 6 6 6 6
3 3 2 2 3 3 3 3 2 2 1 1 2 2 2 1 0 1 1 1 1 2 2 2 2 2 2 4 5 6 6 6 6 6 6 6 6 6 7 7 7 7 6
3 3 3 2 2 3 3 2 2 2 1 1 2 2 2 3 3 1 0 1 1 1 1 2 2 2 2 1 3 6 6 6 6 6 7 7 7 7 7 8 8 7 7
3 3 3 3 3 3 2 2 2 3 1 0 1 3 3 2 2 2 1 0 0 0 1 2 3 3 3 2 2 3 5 5 6 6 6 6 6 6 7 7 6 7 7
2 3 3 3 3 2 3 2 2 2 3 1 0 1 2 3 2 1 2 1 1 1 2 2 2 2 3 2 2 3 5 5 5 5 5 6 6 6 6 6 6 6 6
2 2 3 3 3 2 3 2 2 2 2 2 2 1 1 1 2 2 1 2 2 2 1 2 2 2 3 3 2 3 5 5 5 5 5 5 6 6 6 6 6 7 7
1 1 2 2 2 2 2 2 2 2 2 2 2 2 2 2 2 2 2 2 2 2 2 1 2 2 2 2 4 5 5 4 4 4 4 5 5 6 7 6 6 7 7
2 2 2 2 2 2 2 2 2 2 2 2 2 2 2 2 2 3 2 2 1 2 1 1 2 2 2 2 2 5 5 5 4 4 4 5 5 6 6 6 6 5 5
2 3 3 3 3 3 2 2 1 1 1 2 2 2 2 2 2 3 3 3 1 1 1 2 2 2 2 2 3 4 3 5 5 5 6 6 6 6 5 5 5 5 5
2 2 2 2 2 3 2 2 1 2 1 1 2 2 2 2 2 2 2 3 4 2 2 2 1 1 1 1 3 2 2 5 5 6 7 7 6 6 6 6 6 5 5
2 2 2 2 2 2 2 2 1 1 2 2 1 1 2 2 2 1 2 2 3 3 3 2 2 2 2 2 3 2 3 5 5 6 6 7 7 7 6 6 6 6 5
2 2 2 2 2 3 2 2 2 2 2 2 2 2 2 2 2 1 1 2 2 2 2 3 1 1 1 2 2 2 2 2 3 6 6 6 7 7 7 7 6 6 6
2 2 2 2 2 2 2 3 3 3 3 2 2 2 2 2 2 2 2 2 2 2 3 3 2 1 2 3 2 2 2 2 3 5 6 6 6 7 8 8 7 7 7
2 2 2 2 2 2 2 3 3 3 3 3 3 3 3 2 2 2 2 2 2 2 2 2 2 2 2 1 1 2 2 2 3 4 5 6 6 7 8 8 8 8 8
3 2 3 3 3 3 3 2 3 3 3 3 3 3 3 3 4 3 3 3 3 2 2 2 2 2 2 2 1 1 2 2 2 2 3 3 5 7 7 8 8 8 8
2 2 2 2 2 2 2 3 3 3 3 3 3 3 3 3 3 3 3 3 3 3 2 2 2 1 2 1 2 2 2 2 2 2 2 2 2 3 4 6 8 8 8
2 1 2 2 2 2 3 3 3 3 2 3 3 3 3 2 3 4 4 4 5 4 4 3 3 4 4 4 3 2 2 1 3 2 2 3 2 3 3 4 7 9 9
2 2 2 2 2 3 3 3 3 2 2 3 3 2 2 2 2 1 3 4 4 6 7 5 5 5 5 5 4 3 3 4 4 3 2 3 2 3 3 5 8 9 10
2 2 2 2 2 2 2 2 2 2 2 2 2 2 2 2 2 2 2 2 3 3 5 5 5 6 6 5 5 6 5 4 3 3 3 3 3 3 3 3 6 9 9
2 2 2 2 2 2 2 3 2 1 1 2 2 1 2 2 3 3 2 2 3 3 4 5 6 7 7 7 6 3 2 2 3 3 2 2 2 2 2 3 4 8 9
1 1 1 1 2 2 3 3 3 1 1 1 1 1 2 3 3 3 3 3 3 4 3 3 4 5 5 5 6 6 5 4 3 3 3 3 2 1 2 2 2 3 4
Wind_Direction
164 170 172 175 177 152 147 139 131 135 129 137 148 144 154 162 162 166 175 171 174 176 175 174 176 179 178 174 171 171 170 173 177 178 179 177 175 174 172 179 178 180 182
162 162 166 175 185 168 157 144 146 140 134 135 138 148 155 160 165 170 173 177 181 177 176 176 178 178 177 170 169 171 172 174 178 177 175 170 169 169 172 176 180 183 184
154 155 161 166 186 164 141 127 120 106 111 114 128 161 163 162 163 165 170 175 183 182 179 180 182 181 178 177 176 177 176 179 183 186 187 181 178 177 176 178 179 182 184
153 151 153 163 167 143 128 125 114 104 103 117 145 179 164 148 162 165 165 175 185 193 190 189 191 187 187 186 184 185 186 187 188 186 185 182 181 181 180 181 185 187 185
146 146 153 155 143 133 129 138 118 128 126 134 160 155 149 153 171 169 176 190 194 193 200 199 198 196 197 197 196 195 193 193 193 186 187 185 179 179 179 186 192 193 191
145 139 143 142 130 122 120 121 119 115 137 154 144 107 105 176 174 182 195 199 200 197 201 208 203 204 203 200 198 198 198 200 195 188 188 183 184 185 185 191 194 193 193
150 139 143 139 136 135 149 140 127 109 103 102 84 44 12 15 81 199 193 174 190 195 189 202 197 208 209 200 203 208 209 206 202 198 197 194 194 194 196 200 202 202 199
155 153 149 151 151 136 130 136 126 127 143 114 121 98 21 354 344 337 195 172 188 184 191 205 194 201 213 213 200 207 212 212 211 208 207 201 198 202 202 205 206 203 201
152 147 150 151 153 144 149 156 145 148 164 203 134 141 144 212 304 329 313 283 136 174 222 213 202 202 199 204 211 204 200 205 207 207 207 199 193 194 199 204 207 205 206
143 144 147 150 154 151 155 170 162 163 150 173 207 177 166 161 155 299 323 325 299 236 233 223 210 208 203 193 189 185 191 198 203 205 206 201 196 195 199 206 211 211 212
146 145 140 146 157 162 166 157 144 145 157 170 174 169 128 112 139 159 248 302 320 285 253 241 213 212 206 192 197 195 188 196 206 213 215 207 201 202 204 211 217 219 221
185 157 140 144 167 176 174 170 160 152 164 166 165 161 160 162 182 171 197 235 266 280 269 248 223 222 210 197 203 187 185 190 198 203 208 207 209 210 211 215 219 222 223
197 201 174 167 177 187 178 161 153 169 174 173 187 194 190 192 177 166 169 203 247 292 318 291 246 226 211 197 207 191 199 203 208 209 205 205 214 219 215 213 218 222 227
199 195 176 175 176 173 174 166 163 189 175 188 200 195 193 202 181 172 171 166 179 318 320 283 285 233 218 201 211 197 212 214 215 211 210 213 218 220 218 220 223 226 231
180 180 184 179 179 178 177 163 173 202 181 194 204 199 200 211 193 190 174 167 165 194 267 268 275 268 247 214 210 201 214 222 221 220 219 217 218 218 218 222 227 226 230
182 178 196 189 183 185 183 168 190 217 204 224 208 192 214 213 200 191 175 171 166 173 222 249 248 249 238 233 221 210 223 225 224 226 227 224 221 220 219 222 227 227 229
184 186 195 187 182 191 194 183 219 226 219 238 231 201 223 206 198 196 177 168 175 165 202 266 270 261 199 227 249 231 227 222 232 233 231 229 229 224 222 225 226 226 231
195 198 187 177 181 181 182 185 210 223 216 228 236 221 236 217 207 200 188 191 195 186 182 234 274 260 228 225 222 227 237 233 237 240 236 234 234 231 228 228 230 231 232
195 194 176 180 188 185 186 197 204 213 214 216 217 217 229 213 228 225 206 207 211 207 187 198 247 253 254 244 245 260 246 248 250 243 232 234 237 238 233 233 235 235 233
185 186 184 190 192 191 196 204 208 211 218 227 223 220 221 209 218 222 217 212 204 200 193 196 234 253 257 261 210 243 274 265 261 256 246 244 242 240 237 237 237 236 233
191 189 189 198 196 194 209 204 210 216 220 229 236 233 223 225 228 217 216 208 198 198 197 204 228 253 259 246 235 230 248 270 270 240 236 252 238 240 240 239 237 234 228
195 182 190 199 202 217 222 208 201 216 225 225 236 244 241 237 245 240 234 225 208 201 204 209 226 231 239 231 226 220 219 244 272 248 196 256 221 237 239 232 234 230 223
192 197 209 204 209 231 224 217 220 202 216 227 228 231 245 250 238 241 260 255 242 231 215 208 219 231 231 222 210 221 219 216 233 234 188 252 241 245 248 242 231 228 226
203 206 211 208 203 236 219 211 221 201 216 233 228 217 212 234 246 224 237 260 256 256 241 225 224 232 233 226 211 212 215 227 256 248 191 229 246 247 257 249 235 229 227
211 212 211 197 205 241 221 214 196 189 234 259 255 233 214 228 249 231 211 239 265 279 275 255 248 247 240 233 218 197 204 204 248 250 208 203 237 252 260 255 245 232 228
205 204 210 199 203 228 232 217 186 171 224 270 300 285 255 250 264 244 217 222 248 264 279 290 282 275 256 242 225 205 199 204 220 245 225 192 224 208 285 268 245 229 225